Flag for Lithuania Weather past 2 weeks in Kaunas, Lithuania

Now
39 °F

Fog.


Feels Like: 39 °F
Forecast: 55 / 65 °F
Wind: No wind

Location: Kaunas

Current Time: May 25, 2015 at 6:31:11 AM

Latest Report: May 25, 2015 at 5:50 AM


Visibility: N/A

Pressure: 30.04 "Hg

Humidity: 87%

Dew point: 36 °F

Location of KaunasLocation

Historic Weather in Kaunas — Graph

°F

Kaunas temperature yesterday

Maximum temperature yesterday: 63 °F (at 2:50 PM)
Minimum temperature yesterday: 45 °F (at 11:50 PM)
Average temperature yesterday: 55 °F

Past Weeks' High & Low Weather Summary

 TemperatureHumidityPressure
High70 °F (May 19, 4:20 PM)94% (May 10, 8:50 PM)30.30 "Hg (May 10, 8:50 PM)
Low34 °F (May 19, 4:20 AM)28% (May 10, 1:50 PM)29.68 "Hg (May 14, 4:50 PM)
Average52 °F69%29.96 "Hg
* Reported May 10 5:20 AM — May 25 5:20 AM, Kaunas, Weather by CustomWeather, © 2015

Note: Actual official high and low records may vary slightly from our data, if they occured in-between our weather recording intervals... More about our weather records

Advertising

Kaunas weather history for previous 24 hours

 ConditionsComfort  
Time TempWeatherWind HumidityBarometerVisibility
5:20 AM
Mon, May 25
37 °FFog.No wind93%30.07 "HgN/A
4:50 AM39 °FFog.No wind93%30.04 "HgN/A
4:20 AM39 °FFog.No wind93%30.04 "HgN/A
3:50 AM41 °FFog.No wind87%30.07 "HgN/A
3:20 AM41 °FQuite cool.2 mph87%30.07 "HgN/A
2:50 AM41 °FPassing clouds.No wind93%30.07 "HgN/A
2:20 AM43 °FQuite cool.2 mph87%30.07 "HgN/A
1:50 AM45 °FQuite cool.1 mph87%30.07 "HgN/A
1:20 AM45 °FQuite cool.1 mph81%30.07 "HgN/A
12:20 AM46 °FCool.No wind82%30.07 "HgN/A
11:50 PM
Sun, May 24
45 °FClear.2 mph81%30.07 "Hg10 mi
11:20 PM46 °FClear.1 mph76%30.07 "Hg10 mi
10:50 PM48 °FClear.1 mph76%30.07 "Hg10 mi
10:20 PM50 °FSunny.1 mph71%30.07 "Hg10 mi
9:50 PM52 °FSunny.1 mph67%30.04 "Hg10 mi
9:20 PM55 °FSunny.No wind55%30.04 "Hg10 mi
8:50 PM61 °FSunny.1 mph39%30.04 "Hg10 mi
8:20 PM63 °FSunny.1 mph37%30.04 "Hg10 mi
7:50 PM63 °FSunny.1 mph34%30.04 "Hg10 mi
7:20 PM63 °FSunny.2 mph37%30.04 "Hg10 mi
6:50 PM63 °FPassing clouds.6 mph34%30.04 "HgN/A
6:20 PM63 °FPassing clouds.5 mph37%30.07 "HgN/A
5:50 PM63 °FPassing clouds.7 mph32%30.07 "HgN/A
5:20 PM63 °FPassing clouds.7 mph34%30.07 "HgN/A
4:50 PM63 °FPassing clouds.7 mph34%30.07 "HgN/A
4:20 PM63 °FSunny.6 mph37%30.07 "Hg10 mi
3:50 PM61 °FSunny.8 mph39%30.07 "Hg10 mi
3:20 PM63 °FSunny.5 mph37%30.07 "Hg10 mi
2:50 PM63 °FPassing clouds.7 mph34%30.07 "HgN/A
2:20 PM61 °FPassing clouds.6 mph42%30.07 "HgN/A
1:50 PM61 °FPassing clouds.7 mph39%30.07 "HgN/A
1:20 PM61 °FPassing clouds.6 mph48%30.07 "HgN/A
12:50 PM59 °FScattered clouds.3 mph59%30.07 "HgN/A
12:20 PM57 °FScattered clouds.5 mph59%30.07 "HgN/A
11:50 AM57 °FScattered clouds.1 mph63%30.07 "HgN/A
11:20 AM55 °FScattered clouds.1 mph63%30.07 "HgN/A
10:50 AM54 °FScattered clouds.2 mph72%30.07 "HgN/A
10:20 AM52 °FBroken clouds.2 mph77%30.07 "HgN/A
9:50 AM50 °FMostly cloudy.5 mph82%30.07 "HgN/A
9:20 AM48 °FMostly cloudy.3 mph87%30.07 "HgN/A
8:50 AM48 °FLow clouds.1 mph87%30.07 "HgN/A
8:20 AM48 °FLow clouds.2 mph87%30.07 "HgN/A
7:50 AM48 °FLow clouds.5 mph87%30.07 "HgN/A
7:20 AM48 °FLow clouds.1 mph94%30.04 "HgN/A
6:50 AM48 °FMostly cloudy.1 mph94%30.04 "Hg6 mi
6:20 AM48 °FMore clouds than sun.6 mph94%30.04 "HgN/A
Weather by CustomWeather, © 2015

See weather overviewHow to use our weather pages